This is the latest recevied weather packets stored in our database for station/object MM1PTT-13. If no packets are shown the sender has not sent any weather packets the latest 10 day(s).
| Time | Temp. | Humidity | Pressure | Rain* | Wind** | Luminosity | Snow |
|---|---|---|---|---|---|---|---|
| 1777218342 | 18.89° C | 43% | 992.9 hPa | 0 mm | - | 231 W/m² | - |
| 1777218043 | 18.89° C | 42% | 993.2 hPa | 0 mm | - | 237 W/m² | - |
| 1777217742 | 18.89° C | 42% | 993.2 hPa | 0 mm | - | 251 W/m² | - |
| 1777217442 | 18.89° C | 41% | 993.2 hPa | 0 mm | - | 273 W/m² | - |
| 1777217143 | 18.89° C | 42% | 993.2 hPa | 0 mm | - | 306 W/m² | - |
| 1777216843 | 19.44° C | 41% | 993.2 hPa | 0 mm | - | 310 W/m² | - |
| 1777216542 | 19.44° C | 41% | 993.2 hPa | 0 mm | - | 305 W/m² | - |
| 1777216242 | 18.89° C | 43% | 993.2 hPa | 0 mm | - | 349 W/m² | - |
| 1777215943 | 19.44° C | 42% | 993.2 hPa | 0 mm | - | 381 W/m² | - |
| 1777215642 | 19.44° C | 43% | 993.2 hPa | 0 mm | - | 511 W/m² | - |
| 1777215343 | 18.89° C | 44% | 993.6 hPa | 0 mm | - | 442 W/m² | - |
| 1777215043 | 18.89° C | 44% | 993.6 hPa | 0 mm | - | 554 W/m² | - |
| 1777214743 | 17.78° C | 45% | 993.6 hPa | 0 mm | - | 647 W/m² | - |
| 1777214442 | 18.89° C | 44% | 993.6 hPa | 0 mm | - | 668 W/m² | - |
| 1777214146 | 18.89° C | 44% | 993.6 hPa | 0 mm | - | 441 W/m² | - |
| 1777213843 | 18.89° C | 44% | 993.6 hPa | 0 mm | - | 800 W/m² | - |
| 1777213542 | 18.33° C | 46% | 993.6 hPa | 0 mm | - | 798 W/m² | - |
| 1777213242 | 18.33° C | 44% | 993.6 hPa | 0 mm | - | 818 W/m² | - |
| 1777212942 | 18.33° C | 48% | 993.6 hPa | 0 mm | - | 811 W/m² | - |
| 1777212642 | 17.78° C | 48% | 993.6 hPa | 0 mm | - | 867 W/m² | - |
| 1777212343 | 17.22° C | 47% | 993.6 hPa | 0 mm | - | 249 W/m² | - |
| 1777212043 | 17.78° C | 46% | 993.9 hPa | 0 mm | - | 1371 W/m² | - |
| 1777211743 | 17.78° C | 50% | 993.9 hPa | 0 mm | - | 580 W/m² | - |
| 1777211443 | 16.67° C | 51% | 993.6 hPa | 0 mm | - | 449 W/m² | - |
| 1777211143 | 17.22° C | 49% | 993.9 hPa | 0 mm | - | 485 W/m² | - |
* Rain latest hour (hover to see other rain measurements)
** Current wind speed in m/s (hover to see current wind gust speed)